User: anonymous   Login
Location: Planetariul Baia Mare
(47.6578°N, 23.5640°E)
Time: 18:02:19
(UTC+03:00)
Language:

ISS - Orbit

View from above orbital plane
View from above orbital plane
View from above satellite
View from above satellite

Ground track
Ground track

The orbit data is extracted from the following two-line orbital elements,

1 25544U 98067A   19202.96028664  .00016717  00000-0  10270-3 0  9046
2 25544  51.6382 188.7530 0006755 168.0131 192.1182 15.50999691 20642
Epoch (UTC): 21 July 2019 23:02:48
Eccentricity: 0.0006755
inclination: 51.6382°
perigee height: 409 km
apogee height: 418 km
right ascension of ascending node: 188.7530°
argument of perigee: 168.0131°
revolutions per day: 15.50999691
mean anomaly at epoch: 192.1182°
orbit number at epoch: 2064

The dashed part of the orbit path shows where the satellite is in the earth's shadow,  

DLR